EW5534 Weather Reports


time (UTC)temp
C
wind
direction
speed
KPH
gust
KPH
rain 1hr
cm
rain 24hr
cm
rain mn
cm
humidity
%
barometer
mb
20260831143004 -17 252 0.0 0.0 0.00 0.08 0.00 1024.9
20260831141600 -17 284 0.0 0.0 0.00 0.08 0.00 1024.9
20260831140055 -17 169 0.0 0.0 0.00 0.08 0.00 1024.8
20260831134553 -17 261 0.0 0.0 0.00 0.08 0.00 1024.7
20260831133050 -17 254 0.0 0.0 0.00 0.08 0.00 1024.6
20260831131550 -17 274 0.0 0.0 0.00 0.08 0.00 1024.5
20260831130046 -17 44 0.0 0.0 0.00 0.08 0.00 1024.5
20260831124536 -17 10 0.0 0.0 0.00 0.08 0.00 1024.6
20260831123043 -17 36 0.0 0.0 0.00 0.08 0.00 1024.7
20260831121534 -17 44 0.0 0.0 0.00 0.08 0.00 1024.7
20260831120040 -17 44 0.0 0.0 0.00 0.08 0.00 1024.5
20260831114521 -17 44 0.0 0.0 0.00 0.08 0.00 1024.4
20260831113014 -17 44 0.0 0.0 0.00 0.08 0.00 1024.2
20260831111510 -17 44 0.0 0.0 0.00 0.08 0.00 1024.1
20260831110005 -17 24 0.0 0.0 0.00 0.08 0.00 1024.1
20260831104503 -17 65 0.0 0.0 0.00 0.08 0.00 1023.8
20260831103057 -17 65 0.0 0.0 0.00 0.08 0.00 1023.8
20260831101601 -17 65 0.0 0.0 0.00 0.08 0.00 1023.6
20260831100051 -17 65 0.0 0.0 0.00 0.08 0.00 1023.4
20260831094555 -17 65 0.0 0.0 0.00 0.08 0.00 1023.6
20260831093039 -17 65 0.0 0.0 0.00 0.08 0.00 1023.7
20260831091534 -17 65 0.0 0.0 0.00 0.08 0.00 1023.2
20260831090030 -17 67 0.0 0.0 0.00 0.08 0.00 1023.3
20260831084528 -17 67 0.0 0.0 0.00 0.08 0.00 1023.2
20260831083024 -17 67 0.0 0.0 0.00 0.08 0.00 1023.0
20260831081532 -17 67 0.0 0.0 0.00 0.08 0.00 1023.0
20260831080012 -17 67 0.0 0.0 0.00 0.08 0.00 1023.1
20260831074507 -17 69 0.0 0.0 0.00 0.08 0.00 1023.0
20260831073004 -17 309 0.0 0.0 0.00 0.08 0.00 1023.2
20260831071606 -17 309 0.0 0.0 0.00 0.08 0.00 1023.3
20260831070115 -17 309 0.0 0.0 0.00 0.08 0.00 1023.3
20260831064551 -17 51 0.0 0.0 0.00 0.08 0.00 1023.2
20260831063046 -17 51 0.0 0.0 0.00 0.08 0.00 1023.1
20260831061542 -17 51 0.0 0.0 0.00 0.08 0.00 1023.1
20260831060047 -17 51 0.0 0.0 0.00 0.08 0.00 1023.1
20260831054533 -17 51 0.0 0.0 0.00 0.08 0.00 1023.1
20260831053028 -17 51 0.0 0.0 0.00 0.08 0.00 1023.1
20260831051534 -17 51 0.0 0.0 0.00 0.08 0.00 1023.0
20260831050020 -17 51 0.0 0.0 0.00 0.08 0.00 1023.1
20260831044515 -17 51 0.0 0.0 0.00 0.08 0.00 1023.1
20260831043010 -17 51 0.0 0.0 0.00 0.08 0.00 1023.0
20260831041506 -17 51 0.0 0.0 0.00 0.08 0.00 1022.9
20260831040004 -17 51 0.0 0.0 0.00 0.08 0.00 1022.8
20260831034557 -17 51 0.0 0.0 0.00 0.08 0.08 1022.9
20260831033101 -17 51 0.0 0.0 0.00 0.08 0.08 1022.8
20260831031549 -17 51 0.0 0.0 0.03 0.08 0.08 1023.0
20260831030044 -17 51 0.0 0.0 0.03 0.08 0.08 1023.3
20260831024540 -17 51 0.0 0.0 0.03 0.08 0.08 1023.2
20260831023041 -17 51 0.0 0.0 0.03 0.08 0.08 1023.2
20260831021548 -17 51 0.0 0.0 0.03 0.05 0.05 1023.2
20260831020026 -17 51 0.0 0.0 0.03 0.05 0.05 1023.4
20260831014523 -17 51 0.0 0.0 0.03 0.05 0.05 1023.3
20260831013018 -17 51 0.0 0.0 0.05 0.05 0.05 1023.3
20260831011514 -17 51 0.0 0.0 0.03 0.03 0.03 1023.2
20260831010022 -17 51 0.0 0.0 0.03 0.03 0.03 1023.0
20260831004505 -17 51 0.0 0.0 0.03 0.03 0.03 1022.9
20260831003101 -17 51 0.0 0.0 0.00 0.00 0.00 1022.8
20260831001606 -17 51 0.0 0.0 0.00 0.00 0.00 1022.5
20260831000052 -17 51 0.0 0.0 0.00 0.00 0.00 1022.4
20260830234548 -17 51 0.0 0.0 0.00 0.00 0.00 1022.2
20260830233048 -17 51 0.0 0.0 0.00 0.00 0.00 1022.0
20260830231548 -17 51 0.0 0.0 0.00 0.00 0.00 1021.9
20260830230052 -17 51 0.0 0.0 0.00 0.00 0.00 1021.9
20260830224555 -17 51 0.0 0.0 0.00 0.00 0.00 1021.9
20260830223045 -17 51 0.0 0.0 0.00 0.00 0.00 1021.9
20260830221545 -17 51 0.0 0.0 0.00 0.00 0.00 1022.0
20260830220049 -17 51 0.0 0.0 0.00 0.00 0.00 1022.2
20260830214541 -17 51 0.0 0.0 0.00 0.00 0.00 1022.2
20260830213034 -17 202 0.0 0.0 0.00 0.00 0.00 1021.9
20260830211530 -17 202 0.0 0.0 0.00 0.00 0.00 1022.0
20260830210025 -17 202 0.0 0.0 0.00 0.00 0.00 1022.0
20260830204521 -17 202 0.0 0.0 0.00 0.00 0.00 1022.1
20260830203017 -17 200 0.0 0.0 0.00 0.00 0.00 1022.3
20260830201513 -17 197 0.0 0.0 0.00 0.00 0.00 1022.5
20260830200007 -17 196 0.0 0.0 0.00 0.00 0.00 1022.8
20260830194503 -17 196 0.0 0.0 0.00 0.00 0.00 1022.8
20260830193059 -17 180 0.0 0.0 0.00 0.00 0.00 1023.0
20260830191558 -17 156 0.0 0.0 0.00 0.00 0.00 1023.1
20260830190050 -17 189 0.0 0.0 0.00 0.00 0.00 1023.3
20260830184546 -17 230 0.0 0.0 0.00 0.00 0.00 1023.6
20260830183041 -17 230 0.0 0.0 0.00 0.00 0.00 1023.8
20260830181545 -17 230 0.0 0.0 0.00 0.00 0.00 1023.9
20260830180050 -17 230 0.0 0.0 0.00 0.00 0.00 1024.1
20260830174530 -17 230 0.0 0.0 0.00 0.00 0.00 1024.2
20260830173049 -17 230 0.0 0.0 0.00 0.00 0.00 1024.2
20260830171520 -17 230 0.0 0.0 0.00 0.00 0.00 1024.5
20260830170018 -17 242 0.0 0.0 0.00 0.00 0.00 1024.5
20260830164511 -17 257 0.0 0.0 0.00 0.00 0.00 1024.5
20260830163007 -17 227 0.0 0.0 0.00 0.00 0.00 1024.6
20260830161501 -17 227 0.0 0.0 0.00 0.00 0.00 1024.9
20260830160057 -17 229 0.0 0.0 0.00 0.00 0.00 1025.1
20260830154553 -17 229 0.0 0.0 0.00 0.00 0.00 1025.3
20260830153049 -17 238 0.0 0.0 0.00 0.00 0.00 1025.3
20260830151544 -17 225 0.0 0.0 0.00 0.00 0.00 1025.5
20260830150040 -17 242 0.0 0.0 0.00 0.00 0.00 1025.8
20260830144537 -17 242 0.0 0.0 0.00 0.00 0.00 1026.0